Back to catalog

COSMOS 1604

AliveMilitaryHEO
NORAD 15350·PAYLOAD·🇷🇺 Russia

Launched Oct 4, 1984 from Plesetsk Cosmodrome

Loading…

Next Passes (next 24 hours)

TLE

FreshSource: Space-Track

Epoch: Sep 8, 2026, 09:45 UTC

1 15350U 84107A   26251.40672565  .00000307  00000-0  00000-0 0  9995
2 15350  72.5590 352.9933 5392570 322.6126   9.9637  2.00830522307052

Track COSMOS 1604 in real time with AllMySat

Download on the App Store